Time,TemperatureF,DewpointF,PressureIn,WindDirection,WindDirectionDegrees,WindSpeedMPH,WindSpeedGustMPH,Humidity,HourlyPrecipIn,Conditions,Clouds,dailyrainin,SolarRadiationWatts/m^2,SoftwareType,DateUTC
2013-04-20 00:03:00,43.0,32.0,-100.00,NW,320,8.0,17.0,64,0.02,,,0.90,0.000000,,2013-04-20 04:03:00,
2013-04-20 00:33:00,42.0,30.0,-100.00,NW,313,6.0,20.0,63,0.02,,,0.92,0.000000,,2013-04-20 04:33:00,
2013-04-20 00:43:00,42.0,30.0,-100.00,NW,313,6.0,20.0,63,0.02,,,0.92,0.000000,,2013-04-20 04:43:00,
2013-04-20 00:53:00,42.0,30.0,-100.00,NW,313,6.0,20.0,63,0.02,,,0.92,0.000000,,2013-04-20 04:53:00,
2013-04-20 01:02:00,42.0,30.0,-100.00,NW,313,6.0,20.0,63,0.02,,,0.92,0.000000,,2013-04-20 05:02:00,
2013-04-20 01:32:00,42.0,30.0,-100.00,WNW,297,8.0,18.0,62,0.01,,,0.93,0.000000,,2013-04-20 05:32:00,
2013-04-20 01:43:00,42.0,30.0,-100.00,WNW,297,8.0,18.0,62,0.01,,,0.93,0.000000,,2013-04-20 05:43:00,
2013-04-20 01:52:00,42.0,30.0,-100.00,WNW,297,8.0,18.0,62,0.01,,,0.93,0.000000,,2013-04-20 05:52:00,
2013-04-20 02:02:00,42.0,30.0,-100.00,WNW,297,8.0,18.0,62,0.01,,,0.93,0.000000,,2013-04-20 06:02:00,
2013-04-20 02:32:00,40.0,30.0,-100.00,NW,308,8.0,26.0,68,0.00,,,0.93,0.000000,,2013-04-20 06:32:00,
2013-04-20 02:42:00,40.0,30.0,-100.00,NW,308,8.0,26.0,68,0.00,,,0.93,0.000000,,2013-04-20 06:42:00,
2013-04-20 02:52:00,40.0,30.0,-100.00,NW,308,8.0,26.0,68,0.00,,,0.93,0.000000,,2013-04-20 06:52:00,
2013-04-20 03:02:00,40.0,30.0,-100.00,NW,308,8.0,26.0,68,0.00,,,0.93,0.000000,,2013-04-20 07:02:00,
2013-04-20 03:32:00,39.0,29.0,-100.00,NW,307,7.0,22.0,67,0.00,,,-99.99,0.000000,,2013-04-20 07:32:00,
2013-04-20 03:42:00,39.0,29.0,-100.00,NW,307,7.0,22.0,67,0.00,,,-99.99,0.000000,,2013-04-20 07:42:00,
2013-04-20 03:52:00,39.0,29.0,-100.00,NW,307,7.0,22.0,67,0.00,,,-99.99,0.000000,,2013-04-20 07:52:00,
2013-04-20 04:02:00,39.0,29.0,-100.00,NW,307,7.0,22.0,67,0.00,,,-99.99,0.000000,,2013-04-20 08:02:00,
2013-04-20 04:32:00,37.0,28.0,-100.00,South,181,2.0,13.0,70,0.00,,,0.93,0.000000,,2013-04-20 08:32:00,
2013-04-20 04:42:00,37.0,28.0,-100.00,South,181,2.0,13.0,70,0.00,,,0.93,0.000000,,2013-04-20 08:42:00,
2013-04-20 04:52:00,37.0,28.0,-100.00,South,181,2.0,13.0,70,0.00,,,0.93,0.000000,,2013-04-20 08:52:00,
2013-04-20 05:02:00,37.0,28.0,-100.00,South,181,2.0,13.0,70,0.00,,,0.93,0.000000,,2013-04-20 09:02:00,
2013-04-20 05:33:00,36.0,28.0,-100.00,SSE,164,2.0,10.0,73,0.00,,,0.93,0.000000,,2013-04-20 09:33:00,
2013-04-20 05:43:00,36.0,28.0,-100.00,SSE,164,2.0,10.0,73,0.00,,,0.93,0.000000,,2013-04-20 09:43:00,
2013-04-20 05:53:00,36.0,28.0,-100.00,SSE,164,2.0,10.0,73,0.00,,,0.93,0.000000,,2013-04-20 09:53:00,
2013-04-20 06:03:00,36.0,28.0,-100.00,SSE,164,2.0,10.0,73,0.00,,,0.93,0.000000,,2013-04-20 10:03:00,
2013-04-20 06:33:00,36.0,28.0,-100.00,ESE,103,1.0,7.0,73,0.00,,,0.93,0.000000,,2013-04-20 10:33:00,
2013-04-20 06:42:00,36.0,28.0,-100.00,ESE,103,1.0,7.0,73,0.00,,,0.93,0.000000,,2013-04-20 10:42:00,
2013-04-20 06:53:00,36.0,28.0,-100.00,ESE,103,1.0,7.0,73,0.00,,,0.93,0.000000,,2013-04-20 10:53:00,
2013-04-20 07:02:00,36.0,28.0,-100.00,ESE,103,1.0,7.0,73,0.00,,,0.93,0.000000,,2013-04-20 11:02:00,
2013-04-20 07:32:00,35.0,27.0,-100.00,ENE,64,2.0,7.0,73,0.00,,,0.93,1.000000,,2013-04-20 11:32:00,
2013-04-20 07:42:00,35.0,27.0,-100.00,ENE,64,2.0,7.0,73,0.00,,,0.93,1.000000,,2013-04-20 11:42:00,
2013-04-20 07:53:00,35.0,27.0,-100.00,ENE,64,2.0,7.0,73,0.00,,,0.93,1.000000,,2013-04-20 11:53:00,
2013-04-20 08:02:00,35.0,27.0,-100.00,ENE,64,2.0,7.0,73,0.00,,,0.93,1.000000,,2013-04-20 12:02:00,
2013-04-20 08:32:00,34.0,31.0,-100.00,East,93,1.0,3.0,90,0.00,,,0.88,46.000000,,2013-04-20 12:32:00,
2013-04-20 08:42:00,34.0,31.0,-100.00,East,93,1.0,3.0,90,0.00,,,0.88,46.000000,,2013-04-20 12:42:00,
2013-04-20 08:52:00,34.0,31.0,-100.00,East,93,1.0,3.0,90,0.00,,,0.88,46.000000,,2013-04-20 12:52:00,
2013-04-20 09:02:00,34.0,31.0,-100.00,East,93,1.0,3.0,90,0.00,,,0.88,46.000000,,2013-04-20 13:02:00,
2013-04-20 09:32:00,40.0,34.0,-100.00,East,101,1.0,4.0,80,0.00,,,0.75,136.000000,,2013-04-20 13:32:00,
2013-04-20 09:42:00,40.0,34.0,-100.00,East,101,1.0,4.0,80,0.00,,,0.75,136.000000,,2013-04-20 13:42:00,
2013-04-20 09:52:00,40.0,34.0,-100.00,East,101,1.0,4.0,80,0.00,,,0.75,136.000000,,2013-04-20 13:52:00,
2013-04-20 10:02:00,40.0,34.0,-100.00,East,101,1.0,4.0,80,0.00,,,0.75,136.000000,,2013-04-20 14:02:00,
2013-04-20 10:32:00,48.0,29.0,-100.00,ENE,67,4.0,10.0,47,0.00,,,0.65,487.000000,,2013-04-20 14:32:00,
2013-04-20 10:42:00,48.0,29.0,-100.00,ENE,67,4.0,10.0,47,0.00,,,0.65,487.000000,,2013-04-20 14:42:00,
2013-04-20 10:52:00,48.0,29.0,-100.00,ENE,67,4.0,10.0,47,0.00,,,0.65,487.000000,,2013-04-20 14:52:00,
2013-04-20 11:02:00,48.0,29.0,-100.00,ENE,67,4.0,10.0,47,0.00,,,0.65,487.000000,,2013-04-20 15:02:00,
2013-04-20 11:34:00,50.0,28.0,-100.00,NW,304,8.0,17.0,43,0.00,,,0.56,832.000000,,2013-04-20 15:34:00,
2013-04-20 11:43:00,50.0,28.0,-100.00,NW,304,8.0,17.0,43,0.00,,,0.56,832.000000,,2013-04-20 15:43:00,
2013-04-20 11:53:00,50.0,28.0,-100.00,NW,304,8.0,17.0,43,0.00,,,0.56,832.000000,,2013-04-20 15:53:00,
2013-04-20 12:03:00,50.0,28.0,-100.00,NW,304,8.0,17.0,43,0.00,,,0.56,832.000000,,2013-04-20 16:03:00,
2013-04-20 12:33:00,53.0,31.0,-100.00,NW,309,6.0,14.0,42,0.00,,,0.49,1016.000000,,2013-04-20 16:33:00,
2013-04-20 12:42:00,53.0,31.0,-100.00,NW,309,6.0,14.0,42,0.00,,,0.49,1016.000000,,2013-04-20 16:42:00,
2013-04-20 12:53:00,53.0,31.0,-100.00,NW,309,6.0,14.0,42,0.00,,,0.49,1016.000000,,2013-04-20 16:53:00,
2013-04-20 13:02:00,53.0,31.0,-100.00,NW,309,6.0,14.0,42,0.00,,,0.49,1016.000000,,2013-04-20 17:02:00,
2013-04-20 13:33:00,54.0,28.0,-100.00,NNW,328,7.0,13.0,37,0.00,,,0.40,1129.000000,,2013-04-20 17:33:00,
2013-04-20 13:42:00,54.0,28.0,-100.00,NNW,328,7.0,13.0,37,0.00,,,0.40,1129.000000,,2013-04-20 17:42:00,
2013-04-20 13:52:00,54.0,28.0,-100.00,NNW,328,7.0,13.0,37,0.00,,,0.40,1129.000000,,2013-04-20 17:52:00,
2013-04-20 14:02:00,54.0,28.0,-100.00,NNW,328,7.0,13.0,37,0.00,,,0.40,1129.000000,,2013-04-20 18:02:00,
2013-04-20 14:32:00,59.0,33.0,-100.00,NW,308,5.0,14.0,37,0.00,,,0.34,1168.000000,,2013-04-20 18:32:00,
2013-04-20 14:42:00,59.0,33.0,-100.00,NW,308,5.0,14.0,37,0.00,,,0.34,1168.000000,,2013-04-20 18:42:00,
2013-04-20 14:53:00,59.0,33.0,-100.00,NW,308,5.0,14.0,37,0.00,,,0.34,1168.000000,,2013-04-20 18:53:00,
2013-04-20 15:02:00,59.0,33.0,-100.00,NW,308,5.0,14.0,37,0.00,,,0.34,1168.000000,,2013-04-20 19:02:00,
2013-04-20 15:32:00,58.0,31.0,-100.00,NW,316,7.0,15.0,35,0.00,,,0.28,1133.000000,,2013-04-20 19:32:00,
2013-04-20 15:42:00,58.0,31.0,-100.00,NW,316,7.0,15.0,35,0.00,,,0.28,1133.000000,,2013-04-20 19:42:00,
2013-04-20 15:52:00,58.0,31.0,-100.00,NW,316,7.0,15.0,35,0.00,,,0.28,1133.000000,,2013-04-20 19:52:00,
2013-04-20 16:02:00,58.0,31.0,-100.00,NW,316,7.0,15.0,35,0.00,,,0.28,1133.000000,,2013-04-20 20:02:00,
2013-04-20 16:32:00,59.0,27.0,-100.00,WNW,303,7.0,16.0,29,0.00,,,0.24,1024.000000,,2013-04-20 20:32:00,
2013-04-20 16:42:00,59.0,27.0,-100.00,WNW,303,7.0,16.0,29,0.00,,,0.24,1024.000000,,2013-04-20 20:42:00,
2013-04-20 16:52:00,59.0,27.0,-100.00,WNW,303,7.0,16.0,29,0.00,,,0.24,1024.000000,,2013-04-20 20:52:00,
2013-04-20 17:02:00,59.0,27.0,-100.00,WNW,303,7.0,16.0,29,0.00,,,0.24,1024.000000,,2013-04-20 21:02:00,
2013-04-20 17:33:00,59.0,28.0,-100.00,NW,321,8.0,15.0,30,0.00,,,-99.99,850.000000,,2013-04-20 21:33:00,
2013-04-20 17:43:00,59.0,28.0,-100.00,NW,321,8.0,15.0,30,0.00,,,-99.99,850.000000,,2013-04-20 21:43:00,
2013-04-20 17:53:00,59.0,28.0,-100.00,NW,321,8.0,15.0,30,0.00,,,-99.99,850.000000,,2013-04-20 21:53:00,
2013-04-20 18:03:00,59.0,28.0,-100.00,NW,321,8.0,15.0,30,0.00,,,-99.99,850.000000,,2013-04-20 22:03:00,
2013-04-20 18:33:00,60.0,29.0,-100.00,WNW,302,6.0,15.0,31,0.00,,,0.16,617.000000,,2013-04-20 22:33:00,
2013-04-20 18:42:00,60.0,29.0,-100.00,WNW,302,6.0,15.0,31,0.00,,,0.16,617.000000,,2013-04-20 22:42:00,
2013-04-20 18:53:00,60.0,29.0,-100.00,WNW,302,6.0,15.0,31,0.00,,,0.16,617.000000,,2013-04-20 22:53:00,
2013-04-20 19:02:00,60.0,29.0,-100.00,WNW,302,6.0,15.0,31,0.00,,,0.16,617.000000,,2013-04-20 23:02:00,
2013-04-20 19:32:00,56.0,27.0,-100.00,NNW,328,7.0,17.0,33,0.00,,,0.14,371.000000,,2013-04-20 23:32:00,
2013-04-20 19:42:00,56.0,27.0,-100.00,NNW,328,7.0,17.0,33,0.00,,,0.14,371.000000,,2013-04-20 23:42:00,
2013-04-20 19:53:00,56.0,27.0,-100.00,NNW,328,7.0,17.0,33,0.00,,,0.14,371.000000,,2013-04-20 23:53:00,
2013-04-20 20:01:00,56.0,27.0,-100.00,NNW,328,7.0,17.0,33,0.00,,,0.14,371.000000,,2013-04-21 00:01:00,
2013-04-20 21:32:00,47.0,27.0,-100.00,East,79,1.0,6.0,45,-99.99,,,0.07,2.000000,,2013-04-21 01:32:00,
2013-04-20 21:42:00,47.0,27.0,-100.00,East,79,1.0,6.0,45,-99.99,,,0.07,2.000000,,2013-04-21 01:42:00,
2013-04-20 21:52:00,47.0,27.0,-100.00,East,79,1.0,6.0,45,-99.99,,,0.07,2.000000,,2013-04-21 01:52:00,
2013-04-20 22:02:00,47.0,27.0,-100.00,East,79,1.0,6.0,45,-99.99,,,0.07,2.000000,,2013-04-21 02:02:00,
2013-04-20 22:32:00,44.0,33.0,-100.00,ENE,73,2.0,4.0,65,0.00,,,0.05,0.000000,,2013-04-21 02:32:00,
2013-04-20 22:42:00,44.0,33.0,-100.00,ENE,73,2.0,4.0,65,0.00,,,0.05,0.000000,,2013-04-21 02:42:00,
2013-04-20 22:52:00,44.0,33.0,-100.00,ENE,73,2.0,4.0,65,0.00,,,0.05,0.000000,,2013-04-21 02:52:00,
2013-04-20 23:01:00,44.0,33.0,-100.00,ENE,73,2.0,4.0,65,0.00,,,0.05,0.000000,,2013-04-21 03:01:00,
2013-04-20 23:33:00,40.0,33.0,-100.00,East,84,0.0,4.0,75,0.00,,,0.03,0.000000,,2013-04-21 03:33:00,
2013-04-20 23:42:00,40.0,33.0,-100.00,East,84,0.0,4.0,75,0.00,,,0.03,0.000000,,2013-04-21 03:42:00,
2013-04-20 23:53:00,40.0,33.0,-100.00,East,84,0.0,4.0,75,0.00,,,0.03,0.000000,,2013-04-21 03:53:00,